This is the latest recevied weather packets stored in our database for station/object K7PMV-13. If no packets are shown the sender has not sent any weather packets the latest 10 day(s).
| Time | Temp. | Humidity | Pressure | Rain* | Wind** | Luminosity | Snow |
|---|---|---|---|---|---|---|---|
| 1777065574 | 32.22° C | 16% | 1004.9 hPa | 0 mm | - | 849 W/m² | - |
| 1777065271 | 31.67° C | 16% | 1004.9 hPa | 0 mm | - | 858 W/m² | - |
| 1777064969 | 31.11° C | 16% | 1004.9 hPa | 0 mm | - | 870 W/m² | - |
| 1777064666 | 31.11° C | 16% | 1005.1 hPa | 0 mm | - | 881 W/m² | - |
| 1777064363 | 31.67° C | 16% | 1005.2 hPa | 0 mm | - | 886 W/m² | - |
| 1777064061 | 31.11° C | 16% | 1005.3 hPa | 0 mm | - | 893 W/m² | - |
| 1777063758 | 31.11° C | 16% | 1005.2 hPa | 0 mm | - | 904 W/m² | - |
| 1777063455 | 30.56° C | 17% | 1005.3 hPa | 0 mm | - | 909 W/m² | - |
| 1777063152 | 31.11° C | 16% | 1005.4 hPa | 0 mm | - | 918 W/m² | - |
| 1777062849 | 31.11° C | 17% | 1005.5 hPa | 0 mm | - | 921 W/m² | - |
| 1777062547 | 31.11° C | 16% | 1005.5 hPa | 0 mm | - | 925 W/m² | - |
| 1777062244 | 31.67° C | 16% | 1005.6 hPa | 0 mm | - | 932 W/m² | - |
| 1777061942 | 31.11° C | 16% | 1005.6 hPa | 0 mm | - | 937 W/m² | - |
| 1777061640 | 30.56° C | 17% | 1005.7 hPa | 0 mm | - | 940 W/m² | - |
| 1777061337 | 30.56° C | 17% | 1005.9 hPa | 0 mm | - | 944 W/m² | - |
| 1777061004 | 31.11° C | 17% | 1005.9 hPa | 0 mm | - | 949 W/m² | - |
| 1777060701 | 30.56° C | 16% | 1006.1 hPa | 0 mm | - | 956 W/m² | - |
| 1777060334 | 31.11° C | 16% | 1006.2 hPa | 0 mm | - | 958 W/m² | - |
| 1777060032 | 30° C | 16% | 1006.2 hPa | 0 mm | - | 962 W/m² | - |
| 1777059728 | 30.56° C | 16% | 1006.3 hPa | 0 mm | - | 963 W/m² | - |
| 1777059426 | 30° C | 17% | 1006.4 hPa | 0 mm | - | 951 W/m² | - |
| 1777059123 | 30° C | 16% | 1006.5 hPa | 0 mm | - | 949 W/m² | - |
| 1777058821 | 30° C | 17% | 1006.6 hPa | 0 mm | - | 942 W/m² | - |
| 1777058518 | 30° C | 17% | 1006.7 hPa | 0 mm | - | 990 W/m² | - |
| 1777058215 | 29.44° C | 17% | 1006.8 hPa | 0 mm | - | 979 W/m² | - |
* Rain latest hour (hover to see other rain measurements)
** Current wind speed in m/s (hover to see current wind gust speed)